200 serials | classic pdf editor registration code serial numbers. convert classic pdf editor registration code trail version to full software

Date Name Success Rate
2011-09-08 10:56:11 FontLook v3.1 Registration Code 71%
2011-09-08 11:42:43 Nic O'Matic 1.6 Registration Code 69%
2011-09-08 11:42:43 Nic O'Matic v1.6 Registration Code 48%
2011-09-08 12:54:14 TimeSlips 10.5 enterprise - with registration code! 54%
2012-12-13 05:12:00 Registration Code For PDFZilla Giveaway 42%
2012-12-13 05:12:00 Registration code:-826510-16101-266644 59%
2011-09-08 11:32:07 Microstation v5.xx.xx & 95 FULL REGISTRATION 73%
2011-09-08 10:01:05 Advanced Code Editor 3.0.6 0%
2011-09-08 10:01:05 Advanced Code Editor v3.0.6 0%
2011-09-08 10:27:36 Code Red HTML Editor 1.3.4 0%
2011-09-08 10:27:36 Code Red HTML Editor v1.3.4 0%
2011-09-08 10:27:36 Code Whiz Editor 1.2 0%
2011-09-08 10:27:36 Code Whiz Editor 1.3 0%
2011-09-08 10:27:36 Code Whiz Editor 1.4 0%
2011-09-08 10:27:36 Code Whiz Editor v1.2 0%
2011-09-08 10:27:36 Code Whiz Editor v1.3 0%
2011-09-08 10:27:36 Code Whiz Editor v1.4 33%
2011-09-08 11:03:59 GWD Text Editor V1.53 Code 0%
2011-09-08 12:38:33 Programming Code Editor 1.7 0%
2011-09-08 12:38:33 Programming Code Editor v1.7 0%
2009-10-22 23:49:59 Star Wars Galaxies Trail Key Code 0%
2011-09-08 10:24:16 CATIII.Software.Code.Signer.Pro Version: 1.2 0%
2009-10-17 06:32:24 Sobolsoft MS Word Convert Numbers To Text Software V7.0 75%
2009-10-22 23:49:55 Software MultiPlant Classic 3.16 0%
2009-10-22 23:49:55 Software MultiPlant Classic 3.17.166 0%
2009-10-22 23:49:55 Software MultiPlant Classic 3.17a.175 0%
2009-10-22 23:49:55 Software MultiPlant Classic 3.2.192 0%
2011-09-08 11:06:24 Helm-Software MultiPlant Classic 3.17a.175 0%
2011-09-08 11:06:24 Helm-Software MultiPlant Classic v3.17.166 0%
2011-09-08 11:06:24 Helm-Software MultiPlant Classic v3.17a.175 0%
2009-10-17 06:24:22 Helm-Software MultiPlant Classic V3.17.166 German 0%
2009-10-17 06:24:22 Helm-Software MultiPlant Classic V3.17a 175 German 0%
2009-10-17 06:24:22 Helm-Software MultiPlant Classic V3.2.192 German 0%
2009-10-17 06:24:22 Helm-Software MultiPlant Classic V3.16 Build 162 German 0%
2009-10-22 23:49:52 Serial Code Ultimate 66%
2011-09-08 11:14:33 ImageLib Corporate Suite 6.0 D56 With Full SRC Code 0%
2011-09-08 11:14:33 ImageLib Corporate Suite v6.0 D56 With Full SRC Code 73%
2012-12-12 12:41:36 Full speed 3.3 pro boost unlock code 60%
2011-09-08 10:42:09 DAS Registration 1.5.2 64%
2011-09-08 10:42:09 DAS Registration For CW5 45%
2011-09-08 10:42:09 DAS Registration v1.5.2 0%
2009-10-17 06:27:02 Lazarus Registration DLL V1.0 56%
2009-10-22 23:48:48 MemoriesonTV Registration 0%
2009-10-22 23:49:42 Registration Wizard 73%
2011-09-08 10:06:47 AnetHelpTool v4.02 Registration 52%
2011-09-08 10:22:13 ByeLines Registration 78%
2011-09-08 10:57:42 Ftgate Registration 72%
2011-09-08 11:15:16 Infodex v2.10 Registration 45%
2011-09-08 11:25:08 Lazarus Registration DLL v1.0 47%
2011-09-08 11:27:46 Mac Opener v3.0 Registration 57%
2011-09-08 11:32:59 mIRC v4.5+ Registration 35%
2011-09-08 11:32:59 mIRC v4.52 Registration 51%
2011-09-08 12:37:02 Quant v2.0 Registration 52%
2011-09-08 12:41:14 Registration Suite 1.0 56%
2011-09-08 12:41:14 Registration Suite v1.0 60%
2011-09-08 12:41:14 Registration Wizard Pro 5.01 46%
2011-09-08 12:41:14 Registration Wizard Pro v5.01 60%
2011-09-08 13:18:59 WinHacker 95 v2.02 Registration 57%
2012-12-13 05:12:00 Registration Key : 526EFEF086E09600449E667EA2DAE8E2E6D642BC 65%
2011-09-08 12:52:10 TeeChart Pro Full Source Code for Delphi CPPB Kylix 5.02 0%
2011-09-08 12:52:10 TeeChart Pro Full Source Code for Delphi CPPB Kylix v5.02 0%
2009-10-22 23:49:02 Norton SystemWorks 2005 Premier (Serial And Activation Code) 76%
2009-10-22 23:27:21 Ardamax Keylogger 2.9 Registration 56%
2009-10-22 23:48:49 Microsoft Registration Hacker - 39%
2009-10-22 23:49:57 SoudForge ALL (No Registration Requiered) 0%
2009-10-22 23:50:26 Valve's Registration Armor Key-Gen 60%
2011-09-08 10:21:42 Browserola v1.01 Temp. Registration 0%
2011-09-08 11:31:51 Microsoft Registration Hacker 0%
2011-09-08 11:31:51 Microsoft Registration Hacker - 0%
2011-09-08 11:31:51 Microsoft Registration HackerMSREGHACK 0%
2011-09-08 12:34:57 PolyTrans V1.2E Registration Activator CD-Key 73%
2011-09-08 12:34:57 PolyView v2.9b16 Registration 0%
2011-09-08 12:54:09 Time Registration (German) 1.10 0%
2011-09-08 12:59:30 Super Collapse Registration 83%
2011-09-08 13:23:15 Yipe! II for Windows Registration #154 0%
2012-12-13 08:49:53 Softwarenetz Time Registration v1.10 28%
2012-12-13 08:49:56 Softwarenetz Time Registration v1.14 0%
2012-12-13 15:34:10 Valve's Registration Armor Key-Gen 0%
2011-09-08 10:27:36 Code-Genie Version: 3.05.14 50%
2011-09-08 10:27:36 Code-Genie Version: 3.07.31 0%
2009-10-22 23:48:17 Internet Download Manager Registration 55%
2011-09-08 10:25:56 Cheyenne Bitware V4.0 Registration Number 53%
2011-09-08 11:31:51 Microsoft Registration Hacker MSREGHACK 69%
2011-09-08 11:31:51 Microsoft Visual Basic 5 registration cd key 72%
2012-12-12 08:07:32 Download avast 5.0.667 Antivirus registration 52%
2012-12-13 05:12:00 Registration key for x-3gp-video-converter-38540 81%
2012-12-13 13:12:40 Total Image Converter Registration Key 56%
2012-12-12 19:41:21 Microsoft Visual Studio 2010&2012 Ultimate Serial Code Free 59%
2011-09-08 11:30:16 MediaBlaze 98 v1.01 Win95/NT User: delphic Registration 0%
2011-09-08 10:00:42 Adobe Photoshop v3.05 Danish Version Code 0%
2009-10-22 23:49:02 Norton Internet Security 2005 Registration Guide 0%
2011-09-08 09:58:40 Acoustica Mixcraft v1.10 Build 15 Registration Info by MaBi 60%
2009-10-22 23:48:50 Microsoft Windows XP Proff. SP1 En Version - Install Code 80%
2012-12-12 19:40:26 Microsoft Visual Basic 2008 Express Edition Registration key 50%
2009-10-17 06:20:07 CATIII Software Code Signer Pro V1.2 67%
2009-10-22 23:45:50 CATIII Software Code Signer Pro V1.2 0%
2012-12-12 03:32:45 Avs video editor 6.0.1.184 serial 55%
2009-10-22 23:27:17 ALL THE SIMS Serial Numbers 75%
2009-10-17 06:18:06 ABasic Editor V11.0 Serial By AT4RE 52%
2009-10-17 06:27:51 McFunSoft Audio Editor V2.6 Serial Only 88%
2009-10-17 06:35:38 WAVE MP3 Editor V11.0..Serial By AT4RE 0%
2012-12-12 21:48:23 NERO 9 ( TURN TRAIL TO FULL ) 25%
2009-10-17 06:25:06 IMagic Audio Editor 5.01 SERIAL UNIQUE 51%
2009-10-17 06:27:46 Magic Photo Editor V3.5 Serial-ShaneX 75%
2009-10-17 06:29:58 Pandali Intelligent Editor 1.1 Serial By AT4RE 52%
2009-10-17 06:32:15 SED Systems Sound Editor Deluxe V4.0 Serial-iMST 0%
2009-10-17 06:33:27 Total Recorder Editor 8.5 Build 865 Serial By AT4RE 8%
2009-10-17 06:32:24 Sobolsoft Excel Convert Numbers To Text V7.0 54%
2009-10-17 06:32:24 Sobolsoft Excel Convert Phone Numbers V7.0 66%
2009-10-22 23:46:30 Dzsoft PHP Editor All Version 60%
2011-09-08 11:15:14 Infix PDF Editor Version: 1.340 67%
2011-09-08 10:02:56 Akram Audio Editor Version: 2.2 0%
2011-09-08 12:45:02 Sagasoft Power ID3 Editor Version: 1.01 0%
2009-10-22 23:27:10 ACD See Classic 2.23 0%
2012-12-12 21:31:11 NCH Classic FTP v2.18 28%
2012-12-12 21:51:48 Nero Burning Rom 11 Trail Version 82%
2009-10-17 06:18:06 AB Commander Classic V6.7 41%
2009-10-17 06:32:45 Stones Classic V1.0 0%
2009-10-22 23:27:09 AB Commander Classic 6.7 0%
2009-10-22 23:27:10 Acdsee Classic 90%
2009-10-22 23:27:10 ACDSee Classic 2.43 39%
2009-10-22 23:27:10 ACDSee Classic 2.44 0%
2009-10-22 23:27:10 ACDSee Classic V2.43 0%
2009-10-22 23:27:20 AntiVir PE Classic 0%
2009-10-22 23:45:52 ChessGenius Classic 7.038 68%
2009-10-22 23:45:52 Classic Menu_v2.08.77 0%
2009-10-22 23:45:52 Classic Pythagorean 1.7 0%
2009-10-22 23:45:55 Coolumns Classic 1.10 0%
2009-10-22 23:45:55 Coolumns Classic 1.21 0%
2009-10-22 23:46:26 Diablo 2 Classic 0%
2009-10-22 23:46:26 Diablo II Classic 0%
2009-10-22 23:46:27 DJ Mixstation 2 Classic 0%
2009-10-22 23:48:45 MagicScore Classic 3.6 35%
2009-10-22 23:50:00 Stones Classic 1.0 0%
2009-10-22 23:50:12 Trainz Classic 54%
2009-10-22 23:50:38 WinTools.net Classic 3.0 0%
2009-10-22 23:50:38 WinTools.net Classic 3.3 0%
2011-09-08 09:46:08 4D Classic Runtime v3.5 0%
2011-09-08 09:46:09 4D Runtime Classic v3.5 0%
2011-09-08 09:46:09 4D Runtime Classic v3.5 Mac 0%
2011-09-08 09:46:09 4D Runtime Classic v3.5.x 0%
2011-09-08 09:46:09 4D Runtime Classic v6.0.5 0%
2011-09-08 09:46:09 4D Runtime Classic v6.0.x 0%
2011-09-08 09:50:01 AB Commander Classic 6.7 0%
2011-09-08 09:50:01 AB Commander Classic v6.7 0%
2011-09-08 09:58:01 ACDSee Classic 2.44 0%
2011-09-08 09:58:01 ACDSee Classic v2.43 0%
2011-09-08 09:58:01 ACDSee Classic V2.44 0%
2011-09-08 09:58:01 ACDSee Classic v2.44 by AL 0%
2011-09-08 10:18:25 Backgammon Classic 6.2 68%
2011-09-08 10:25:55 ChessGenius Classic 7.038 0%
2011-09-08 10:26:22 Classic Clipboard 1.0 0%
2011-09-08 10:26:22 Classic Clipboard 1.02 0%
2011-09-08 10:26:22 Classic Clipboard Pro 2.06 0%
2011-09-08 10:26:22 Classic Clipboard Pro v2.06 0%
2011-09-08 10:26:22 Classic Clipboard v1.0 0%
2011-09-08 10:26:22 Classic Clipboard v1.02 0%
2011-09-08 10:26:22 Classic Gin Rummy 3.0 0%
2011-09-08 10:26:22 Classic Gin Rummy v3.0 0%
2011-09-08 10:26:22 Classic Movies 0%
2011-09-08 10:26:22 Classic Pythagorean 1.7 0%
2011-09-08 10:26:22 Classic Pythagorean v1.7 by SnD 0%
2011-09-08 10:28:03 Columns Classic 0%
2011-09-08 10:29:09 Coolumns Classic 1.10 0%
2011-09-08 10:29:09 Coolumns Classic 1.21 0%
2011-09-08 10:29:09 Coolumns Classic v1.10 by CAT 0%
2011-09-08 10:29:09 Coolumns Classic v1.21 0%
2011-09-08 10:48:53 EGWORD Classic 0%
2011-09-08 10:56:42 FotoStation Classic 5.1.46 0%
2011-09-08 11:06:28 Heredis 8 classic 0%
2011-09-08 11:28:34 MagicScore Classic 3.6 0%
2011-09-08 11:28:34 MagicScore Classic v1.6 0%
2011-09-08 11:42:23 NetZip Classic 6.52 0%
2011-09-08 11:42:23 NetZip Classic 7.0.0.32 0%
2011-09-08 11:42:23 NetZip Classic 7.5.1.86 0%
2011-09-08 11:42:23 NetZip Classic v6.52 0%
2011-09-08 11:42:23 NetZip Classic v7.0.0.32 0%
2011-09-08 11:42:23 NetZip Classic v7.5.0.58 0%
2011-09-08 11:42:23 NetZip Classic v7.5.1.86 0%
2011-09-08 12:27:52 painter classic 0%
2011-09-08 12:27:52 Painter Classic 1.0 0%
2011-09-08 12:27:52 Painter Classic v1.0 0%
2011-09-08 12:34:47 PocketTV classic 0%
2011-09-08 12:40:05 RA Columns Classic 0%
2011-09-08 12:43:54 RoboHELP Classic 6.0 50%
2011-09-08 12:43:54 RoboHELP Classic v6.0 0%
2011-09-08 12:47:29 Shredder Classic 3.0 60%
2011-09-08 12:50:28 SourceOffSite Classic 3.5.2 100%
2011-09-08 12:50:28 SourceOffSite Classic v3.5.2 0%
2011-09-08 12:52:33 Tetris Classic v1.0 0%
2011-09-08 12:58:38 Steelcase FSL Classic 148.d 0%
2011-09-08 12:58:56 Stones Classic 1 0%
2011-09-08 12:58:56 Stones Classic 1.0 0%
2011-09-08 12:58:56 Stones Classic v1.0 0%
2011-09-08 13:19:49 WinTools.net Classic 0%
2011-09-08 13:19:49 WinTools.net Classic 3.0 0%
2011-09-08 13:19:49 WinTools.net Classic 3.1 0%
2011-09-08 13:19:49 WinTools.net Classic 3.3 0%
2011-09-08 13:19:49 WinTools.net Classic v1.0 0%
2011-09-08 13:19:49 WinTools.net Classic v1.3 0%